Location: Unspecified
(0.0000°N, 0.0000°E)
Time: 06:45:05
(UTC+00:00)

deb Explorer IX - Pass Details

Date: 21 November 2019
Orbit: 546 x 1104 km, 38.8° (Epoch: 11 December)

Event Time Altitude Azimuth Distance (km) Brightness Sun altitude
Rises 21:20:59 0° 250° (WSW) 3,855 ? -49.3°
Reaches altitude 10° 21:24:01 10° 259° (W) 2,933 ? -49.9°
Enters shadow 21:25:00 14° 264° (W) 2,660 ? -50.1°
Maximum altitude 21:30:21 32° 320° (NW) 1,787 - -51.3°
Drops below altitude 10° 21:36:37 10° 20° (NNE) 2,896 - -52.6°
Sets 21:39:36 0° 30° (NNE) 3,799 - -53.2°
